THOR ABLESTAR R/B, 204

Orbit data source: Space-Track

THOR ABLESTAR R/B, 204 is space debris in LEO originally from a launch on Wed, 15 Nov 1961 UTC launched from the Air Force Eastern Test Range (AFETR). Debris objects in space refer to the collection of defunct objects orbiting the Earth. Examples of debris include non-operational satellites, rocket bodies, and fragments generated from explosions, collisions, or faulty payload assembly.

Loading next visibility...
Identifier
204, 1961-031C
Orbit
LEO
Country
Flag of USUS
Related business
Manufacturer
Aerojet
Mission
Spacecraft
Bus & Motor
ABLESTAR, Unknown motor
Mass
~600 kg wet, 600 kg dry
Launch date (UTC)
1961-11-15 (64 years ago)
Launch vehicle
Unknown
Launch site
Air Force Eastern Test Range (AFETR)
Object type
Payload
Rocket body
Debris
Shape & HBR
Unknown
Radar Cross Section
Large (>1 m²)

Expand to show TLE details & history
Last TLE update: 17 hours ago

TLE from 17 hours ago
0 THOR ABLESTAR R/B
1 00204U 61031C   26120.85194836  .00000063  00000-0  47308-4 0  9997
2 00204  32.4434 295.3463 0098916 311.5483  47.6690 13.65079538216556
Epoch: 2026-04-30T20:26Z
TLE epoch observation values (Epoch: 2026-04-30T20:26:48.338Z)
Latitude
-0.00001°
Longitude
129.85226°
Altitude
967.178 km
Speed
7.394 km/s
True Right ascension
19h 41m 23s
True Declination
0° 00' 00"
Sunlit
Object was in daylight at epoch
Visualization orbit readout
Latitude
Unknown
Longitude
Unknown
Altitude
Unknown
Speed
Unknown
Apparent Right ascension
Unknown
Apparent Declination
Unknown
Sunlit
N/A
Visualization observer readout
Local Sidereal Time
20:52:02
Azimuth
Unknown
Elevation
Unknown
Doppler factor
Unknown
Orbital elements
Apogee altitude
1,093.866 km
Perigee altitude
947.494 km
Semi-major axis
7,398.817 km
Eccentricity
0.00989
Inclination
32.4434°
RAAN
295.3463°
Arg. of periapsis
311.5483°
True anomaly
48.51396°
Mean anomaly
47.669°
Eccentric anomaly
48.09078°
Mean motion
3.41036 °/min
Orbital period
105.56 mins
BSTAR
0.000047308
Loading maneuver chart data...
Computing Atmospheric mass density...
Loading historical data...
Loading historical data...
Loading historical data...
Loading historical data...
Loading historical data...
Loading historical data...
Loading historical data...
Other satellites on launch #31 in the year 1961 (1961-11-15 UTC)

Documentation

Showing up to 5 results
|